SCP
1 2 2 2 2 1 0 0 0 0 0 0 0 0 0 0 0 0 0 0 0 0 0 1 1 1 1 1 1 1 1 1 1 1 2 2 1 1 1 1 1 1 1 1 1 1 1 1 1
2 2 3 3 2 1 0 0 0 0 0 0 0 0 0 0 0 0 0 0 0 0 1 1 1 1 1 1 1 1 1 1 1 1 2 2 2 1 1 1 1 1 1 1 1 1 1 1 1
2 3 3 2 1 0 0 0 0 0 0 0 0 0 0 0 0 0 0 0 1 1 1 1 1 1 1 1 1 1 1 1 1 2 3 3 2 2 1 1 1 1 1 1 1 1 1 1 1
3 3 3 2 1 0 0 0 0 0 0 0 0 0 0 0 0 0 0 0 1 1 1 1 1 1 1 1 1 1 1 1 1 2 3 3 3 2 1 1 1 1 1 1 1 1 0 0 1
4 3 2 1 0 0 0 0 0 0 0 0 0 0 0 0 0 0 0 0 1 1 1 1 1 1 1 1 1 1 1 1 2 2 3 3 3 2 1 1 1 1 1 1 1 1 0 0 0
4 3 2 1 0 0 0 0 0 0 0 0 0 0 0 0 0 0 0 0 1 1 1 1 1 1 1 1 1 1 1 2 2 2 3 3 2 2 1 1 1 1 1 1 1 1 0 0 0
4 3 2 1 0 0 0 0 0 0 0 0 0 0 0 0 0 0 0 0 1 1 1 1 1 1 1 1 1 1 1 2 2 2 3 2 2 1 1 1 1 1 1 1 1 1 0 0 0
3 3 2 1 0 0 0 0 0 0 0 0 0 0 0 0 0 0 0 1 1 1 1 1 1 1 1 1 1 1 1 1 2 2 2 2 1 1 1 1 1 1 1 1 1 1 1 1 1
2 2 1 0 0 0 0 0 0 0 0 0 0 0 0 0 0 0 0 1 1 1 1 1 1 1 1 1 1 1 1 1 2 2 2 1 1 1 1 1 1 1 1 1 1 1 1 1 1
1 1 1 0 0 0 0 0 0 0 0 0 0 0 0 0 0 0 0 1 1 1 1 1 1 1 2 1 1 1 1 1 1 1 1 1 1 1 1 1 1 1 1 1 1 1 1 1 1
0 0 0 0 0 0 0 0 0 0 0 0 0 0 0 0 0 0 1 1 1 1 1 1 1 1 1 1 1 1 1 2 1 1 1 1 1 1 1 1 1 1 1 1 1 1 1 1 1
0 0 0 0 0 0 0 0 0 0 0 0 0 0 0 0 0 1 1 1 1 1 1 1 1 1 1 1 2 1 2 2 2 1 1 1 1 1 1 1 1 1 1 1 1 1 1 1 1
0 0 0 0 0 0 0 0 0 0 0 0 0 0 0 0 1 1 1 1 1 1 1 1 1 1 1 2 2 2 1 2 2 2 1 1 1 1 1 1 1 1 1 1 1 1 1 1 1
0 0 0 0 0 0 0 0 0 1 1 1 1 1 1 1 1 1 1 1 1 1 1 2 2 2 2 2 2 2 1 2 2 2 1 1 1 1 1 1 2 2 1 1 2 2 2 2 1
0 0 0 0 0 0 0 1 1 1 1 1 1 1 1 1 1 1 1 1 1 1 2 2 2 3 3 2 2 2 1 1 2 2 2 2 2 2 1 2 2 2 1 2 2 2 2 2 2
0 0 0 0 0 0 1 1 1 1 1 1 1 1 2 1 1 1 1 1 2 2 2 2 2 3 4 3 2 1 1 1 1 2 2 2 2 2 2 2 2 2 2 2 2 3 3 2 2
0 0 0 0 0 0 1 1 1 1 1 1 1 2 2 2 1 1 1 1 2 3 2 2 2 3 4 4 3 2 1 2 2 2 2 1 1 1 1 2 2 2 2 3 3 3 4 4 4
0 0 0 0 0 1 1 1 1 1 1 1 1 2 3 3 2 1 1 2 3 3 3 2 2 2 3 3 3 2 2 2 2 2 1 1 1 1 2 2 2 3 3 4 4 4 4 5 5
0 0 0 0 0 1 1 1 1 1 1 1 1 2 3 4 3 2 1 2 3 3 3 3 3 2 3 3 3 3 3 3 3 2 2 1 1 1 2 2 3 3 4 4 5 6 5 5 5
0 0 0 0 0 0 1 1 1 1 1 1 1 3 4 4 4 3 2 3 4 4 4 4 3 3 3 3 3 3 3 4 3 3 2 2 2 1 2 2 3 4 4 5 7 7 6 5 4
0 0 0 1 1 0 1 1 1 1 1 1 1 2 3 4 4 3 3 4 5 5 5 4 4 4 4 4 4 3 3 3 4 4 3 3 2 2 2 2 3 4 4 5 6 7 6 5 4
0 0 0 1 1 1 1 1 1 1 1 1 1 1 3 4 5 5 4 5 6 7 7 6 6 7 6 6 5 4 3 3 4 4 3 3 3 3 3 3 3 4 4 4 5 5 5 5 4
0 0 0 0 0 1 1 1 1 1 1 1 1 1 2 3 5 6 7 7 7 7 8 9 9 10 9 8 7 5 4 4 4 4 4 4 3 3 3 4 4 3 4 4 4 5 5 5 5
0 0 0 0 0 0 0 1 1 2 2 1 1 1 1 3 5 7 8 8 6 5 7 9 11 11 11 9 7 7 6 5 5 4 5 4 4 4 4 5 4 3 3 4 4 4 4 4 5
0 0 0 1 1 0 0 1 2 3 2 1 1 1 1 2 5 7 8 7 5 4 5 8 11 12 10 8 7 7 7 7 6 5 5 5 4 5 6 6 5 4 3 4 4 4 4 5 5
0 0 0 1 1 0 1 1 2 2 2 1 1 1 1 3 5 7 7 6 5 4 5 7 9 11 11 8 7 8 9 9 8 6 5 5 5 6 7 6 5 4 4 4 4 4 5 6 5
0 0 0 1 1 0 1 1 1 1 1 1 1 1 2 3 5 5 5 5 5 6 7 7 8 11 12 11 10 9 9 9 7 5 4 5 6 6 6 5 4 4 4 5 5 5 7 6 5
0 0 0 1 1 0 1 1 1 1 1 1 1 2 2 3 4 5 5 6 7 8 8 6 7 11 13 12 10 8 7 6 5 4 4 5 6 5 4 3 3 3 5 6 5 6 6 6 4
0 0 0 0 0 0 1 1 1 1 1 1 2 3 3 4 5 6 7 9 10 9 8 6 7 10 11 10 8 6 5 4 4 4 5 6 6 5 3 2 2 3 4 4 5 6 6 5 3
0 0 0 0 1 1 1 1 1 1 1 2 3 3 4 6 7 7 9 10 10 10 9 8 8 9 9 8 7 5 4 4 4 4 5 7 6 4 3 2 2 2 3 4 5 6 6 5 4
Wind_Speed
10 11 9 6 4 2 12 14 13 12 12 12 12 13 15 13 9 8 6 7 9 10 11 11 10 10 10 10 10 10 9 9 9 10 10 10 11 11 12 12 13 13 14 14 14 14 14 14 13
9 11 8 5 0 7 12 12 12 12 11 11 14 15 15 14 11 10 7 7 10 11 11 11 11 11 10 10 9 9 9 10 10 11 12 12 12 12 12 13 13 13 14 14 14 14 13 13 12
11 12 6 1 7 10 12 11 11 12 10 12 14 15 12 11 12 9 9 9 11 12 12 11 12 11 11 10 10 10 10 10 10 12 12 12 12 12 12 13 13 13 14 14 14 14 13 12 11
7 7 4 4 13 13 12 10 10 12 10 11 12 11 13 12 11 11 9 10 12 13 12 12 11 11 11 10 10 11 11 10 11 12 12 13 12 12 13 13 13 13 13 13 13 13 12 11 10
8 5 2 9 14 13 11 11 11 12 11 14 15 14 13 12 12 12 10 11 12 13 13 12 12 11 11 11 12 12 12 12 12 12 13 13 13 12 12 12 13 13 13 12 12 12 11 10 9
7 4 3 10 13 12 11 11 12 12 12 13 14 14 12 11 11 11 10 10 11 13 13 12 12 12 11 11 12 12 12 12 12 12 13 13 12 11 11 12 12 12 12 12 11 11 10 9 8
7 2 6 12 12 12 11 12 12 11 11 11 13 13 12 11 10 10 10 10 10 12 13 11 11 10 11 11 12 11 11 11 11 12 12 12 12 11 11 11 11 11 11 11 11 10 9 8 6
4 2 7 12 12 12 12 13 12 12 10 8 10 11 11 11 10 11 10 10 9 10 10 10 11 10 9 10 11 11 10 10 10 10 11 11 11 11 11 10 10 10 10 10 10 10 9 8 7
3 3 8 12 12 12 12 13 13 12 12 13 14 15 14 13 12 11 10 9 8 9 8 9 10 9 8 10 10 9 9 8 8 8 9 8 5 7 7 10 10 9 9 9 9 8 7 6 6
3 7 12 12 12 12 12 12 11 12 13 15 16 15 14 12 10 10 10 9 8 7 7 8 8 7 6 7 7 5 6 6 4 4 5 4 3 4 7 9 9 8 8 7 7 7 6 5 4
8 9 11 12 12 12 11 11 11 13 12 14 15 14 12 12 10 9 10 9 8 7 7 8 8 6 6 4 4 3 3 4 4 5 4 3 4 4 4 4 4 4 5 4 5 5 3 3 2
9 9 9 11 11 10 11 12 14 15 14 15 14 13 12 11 10 10 10 10 8 6 7 8 9 7 6 5 3 3 3 3 3 4 4 3 2 2 2 2 3 2 2 2 2 2 2 2 2
7 8 9 10 10 10 11 12 14 15 15 15 14 13 12 11 10 10 10 10 9 7 8 9 8 7 6 4 2 4 3 4 4 3 3 3 3 3 3 2 1 1 2 2 2 1 2 2 3
5 7 6 8 9 9 11 11 13 14 15 14 13 12 11 11 11 10 10 9 8 7 8 8 8 7 5 3 2 2 3 3 4 3 4 3 3 2 2 2 1 1 2 2 2 2 2 2 2
5 6 6 6 8 8 9 9 12 14 14 13 12 11 11 10 11 10 10 9 9 8 7 7 8 7 5 3 2 2 2 3 4 3 3 3 3 3 2 2 1 1 1 2 2 2 2 2 2
5 4 4 5 7 9 7 7 12 14 14 12 11 11 10 9 10 10 10 8 9 9 7 5 6 8 6 3 1 2 3 3 3 2 3 3 3 2 1 2 2 1 1 2 2 1 2 2 2
4 4 4 4 6 8 8 8 12 13 14 12 12 12 11 10 10 10 11 10 9 8 7 5 6 6 6 4 2 3 2 2 2 2 2 2 2 2 1 1 2 1 1 1 1 2 2 2 2
6 6 4 4 4 6 8 11 12 13 13 13 12 13 13 12 11 11 10 11 10 9 7 6 6 5 4 3 3 2 2 2 2 2 2 2 1 2 1 1 1 1 1 1 2 2 2 1 2
5 3 3 4 4 4 6 10 13 13 12 13 13 13 13 12 12 12 11 11 11 10 8 7 6 5 3 2 2 2 2 2 2 2 3 2 1 1 1 2 1 1 1 2 2 2 1 1 2
7 4 4 2 4 3 3 5 8 12 12 12 12 13 13 13 13 12 11 10 11 10 9 8 6 6 5 3 2 2 2 2 2 2 2 2 2 1 2 2 1 1 1 1 2 2 1 1 1
8 6 6 5 4 4 3 2 2 5 7 10 11 12 13 14 15 13 12 11 11 11 10 8 8 7 6 5 3 2 2 1 2 3 2 2 2 2 2 2 1 1 1 1 1 1 2 1 0
9 8 7 7 6 4 3 2 3 4 6 9 10 11 13 13 15 15 13 12 11 11 10 8 8 7 6 5 4 4 3 2 2 2 2 3 2 2 2 2 1 1 1 1 1 2 0 1 1
9 7 7 9 7 5 4 3 3 5 6 9 11 12 14 13 14 15 14 12 11 12 11 9 8 7 6 5 4 3 2 3 3 3 3 3 2 2 2 2 1 1 1 1 0 1 0 0 0
10 9 9 10 8 7 6 4 5 6 8 10 11 11 12 13 13 13 13 13 11 11 11 11 9 7 6 5 4 3 2 2 3 3 3 3 2 2 2 2 1 1 1 1 1 0 1 0 0
11 10 6 6 6 6 6 4 5 8 8 8 10 11 11 13 13 12 12 13 11 11 11 11 11 9 7 7 5 4 3 3 3 3 3 2 2 2 2 2 2 1 1 1 1 1 1 1 1
12 13 9 7 6 5 4 4 5 9 9 9 9 11 11 12 13 12 11 11 11 12 11 11 11 10 9 7 6 4 4 4 3 4 2 2 2 2 3 3 2 2 1 1 1 1 1 1 1
13 13 13 10 8 5 3 3 3 7 7 8 9 10 10 11 13 14 13 12 12 12 11 11 11 10 9 8 6 5 5 4 3 3 3 1 1 3 4 3 3 2 1 0 1 1 0 1 1
15 13 9 8 5 6 4 4 3 6 7 8 10 10 10 11 12 13 13 12 12 11 11 10 10 9 8 8 7 7 5 5 4 3 3 2 2 2 2 2 2 2 2 1 0 0 0 1 1
14 14 11 8 8 7 4 2 2 5 6 6 8 9 10 11 11 12 12 12 12 12 11 11 11 10 9 8 6 5 6 5 4 3 3 2 2 2 2 1 1 1 1 1 0 1 0 1 1
12 13 13 9 7 8 6 3 3 3 6 6 7 7 9 9 10 10 11 12 12 12 12 11 11 11 10 8 7 6 6 6 5 4 4 4 3 3 2 2 1 1 1 1 0 0 1 0 0
Wind_Direction
194 210 213 230 238 84 64 63 62 59 59 58 59 66 63 54 61 85 106 103 102 102 101 94 85 82 78 75 77 78 79 82 86 91 96 100 103 104 104 103 104 105 107 108 107 107 108 109 110
216 219 223 235 113 66 64 64 65 66 67 69 66 72 72 67 81 100 107 97 100 99 96 89 89 85 80 78 77 78 80 84 89 94 97 99 101 104 104 103 105 106 107 108 109 109 109 109 111
244 244 255 231 62 70 69 67 75 77 77 79 72 63 63 76 83 101 113 107 100 100 98 94 92 87 84 82 79 79 84 88 90 98 100 99 100 103 104 105 107 108 108 109 110 110 110 110 112
247 232 231 67 69 71 75 79 82 82 75 77 80 74 68 81 97 113 121 114 110 106 102 102 98 92 87 84 82 85 86 90 94 100 103 101 99 101 104 106 108 109 108 108 110 110 111 111 113
238 254 150 80 76 77 79 84 84 80 77 79 82 87 84 92 104 115 120 111 112 111 109 111 104 98 93 89 89 90 88 92 95 98 103 103 99 101 104 107 109 110 109 110 112 114 113 114 118
250 247 90 85 83 79 82 86 85 85 89 93 96 96 93 101 106 114 113 109 109 111 110 114 110 105 101 99 95 93 92 94 97 98 103 105 102 102 105 108 110 111 112 114 117 119 120 121 124
254 291 78 88 89 82 79 82 84 88 87 94 106 104 107 110 110 114 111 107 108 109 115 123 123 117 113 110 104 101 97 98 102 102 104 107 108 108 110 112 113 113 114 118 122 124 127 129 132
264 348 75 87 90 87 86 82 86 86 81 93 109 105 116 119 121 113 106 102 103 107 114 125 125 128 131 123 116 113 109 107 111 111 114 116 115 116 119 117 115 117 120 125 129 134 139 146 154
284 54 69 79 90 95 98 95 93 96 91 80 84 102 114 123 121 118 111 105 101 102 109 115 118 127 130 124 123 130 123 119 119 121 124 128 129 125 124 116 122 124 128 133 139 146 155 160 172
71 70 73 78 91 98 98 104 112 105 97 94 96 105 117 125 125 123 118 113 107 107 111 105 102 103 108 111 125 136 128 122 124 110 119 130 110 105 111 120 130 135 138 144 156 164 169 186 181
79 82 85 89 96 102 106 110 109 103 104 109 116 123 128 128 129 123 116 112 108 111 106 105 98 93 95 98 113 104 106 113 115 107 105 108 107 112 114 129 134 146 160 168 157 174 186 183 162
97 97 94 95 101 100 98 96 88 90 100 112 120 127 131 132 128 121 118 115 112 111 106 102 100 90 71 67 83 100 99 107 103 107 108 105 102 100 108 119 133 150 152 147 138 155 145 134 120
99 103 103 104 103 103 98 95 98 100 108 116 126 131 134 131 127 121 117 116 117 115 106 98 95 90 81 63 35 79 83 93 98 103 105 106 102 93 92 79 84 111 124 129 122 109 106 96 86
117 111 109 116 117 118 111 108 109 115 121 127 132 137 136 130 129 126 124 122 124 123 114 111 112 109 103 95 68 68 84 95 100 100 101 102 103 100 100 101 92 95 94 97 110 119 111 102 102
152 133 141 147 138 124 115 113 122 133 133 137 137 137 134 135 135 136 135 136 135 126 120 124 123 119 115 115 117 107 97 100 97 100 107 105 108 117 127 136 143 137 142 135 135 118 108 129 119
184 167 168 169 157 144 144 132 139 146 144 145 147 143 140 140 143 140 137 139 133 128 126 129 124 123 123 119 101 81 88 89 96 110 110 110 114 138 150 154 142 139 140 135 134 130 117 96 100
215 208 185 192 187 158 152 144 147 158 151 154 157 154 153 155 153 146 146 146 137 132 135 129 116 125 133 138 130 115 107 100 106 106 104 111 134 145 143 126 115 173 154 127 122 114 103 101 108
215 191 177 210 198 170 153 146 156 167 161 163 165 161 161 163 161 154 153 148 143 141 140 138 136 133 142 140 133 127 118 123 127 118 118 123 137 125 119 133 118 105 99 99 92 113 137 131 116
262 273 197 195 228 208 147 154 163 170 173 169 168 167 166 164 160 157 160 155 151 149 147 151 150 142 150 147 147 153 146 144 134 133 123 130 123 112 116 83 119 111 106 108 116 119 129 128 125
251 261 286 244 223 217 169 180 174 170 178 174 170 167 166 163 159 159 163 159 155 151 152 154 158 161 172 156 143 151 135 150 139 115 120 131 130 166 144 113 116 101 109 115 130 134 125 177 156
254 242 240 234 237 227 194 180 202 185 184 174 173 169 167 167 163 162 167 166 161 157 163 168 165 166 174 164 166 153 134 162 128 134 137 127 104 91 71 111 119 100 117 125 147 161 169 194 254
249 250 251 254 243 232 201 183 201 193 195 185 176 169 172 170 165 166 170 170 165 162 163 159 157 160 164 170 182 181 171 164 147 140 142 138 125 129 138 129 132 118 109 115 211 145 228 168 227
253 262 265 269 262 258 229 206 189 189 200 188 179 177 172 166 167 166 168 166 164 163 162 157 152 156 160 173 183 192 183 166 150 141 141 147 154 157 144 137 134 127 133 137 80 83 308 217 228
252 257 261 266 262 256 247 233 183 191 190 183 174 170 163 161 164 161 160 158 163 163 161 159 155 159 165 176 184 189 196 157 150 156 160 173 169 166 159 150 150 156 142 142 181 207 213 219 288
234 240 247 253 249 246 252 244 168 176 171 166 162 163 165 160 155 158 160 161 164 166 164 159 159 164 171 180 184 183 187 176 179 185 183 192 166 167 160 141 141 148 150 180 182 210 220 200 206
240 242 243 241 251 247 252 260 160 147 149 147 149 155 162 159 153 157 163 163 164 167 163 159 161 167 173 179 181 180 184 192 191 193 206 197 166 153 139 136 145 148 165 185 160 232 204 167 205
242 244 253 254 258 256 221 217 157 125 127 138 147 150 156 154 156 160 167 170 168 167 162 161 160 165 173 175 171 175 185 190 179 168 191 192 163 150 142 145 146 145 145 125 158 220 123 125 150
242 250 255 256 263 271 245 227 191 141 148 165 161 157 153 154 157 160 168 171 166 165 160 159 159 164 170 172 177 177 178 182 182 177 164 148 120 99 131 144 154 158 154 155 183 216 138 154 177
224 242 250 259 258 261 252 245 214 163 162 162 145 151 152 159 156 156 164 168 162 162 163 161 159 163 170 172 172 169 166 174 172 172 171 159 143 143 149 163 163 151 129 131 166 192 138 158 187
234 236 241 244 252 268 265 216 227 166 150 139 135 149 147 146 148 152 158 159 162 166 167 165 165 169 173 171 167 172 167 164 174 177 173 163 161 164 168 180 179 173 148 141 146 150 103 156 208